This is the latest recevied weather packets stored in our database for station/object W8BS. If no packets are shown the sender has not sent any weather packets the latest 10 day(s).
| Time | Temp. | Humidity | Pressure | Rain* | Wind** | Luminosity | Snow |
|---|---|---|---|---|---|---|---|
| 1777505041 | 12.78° C | 99% | 1008.3 hPa | 0 mm | - | 3 W/m² | - |
| 1777504737 | 12.78° C | 99% | 1008 hPa | 0 mm | - | 6 W/m² | - |
| 1777504435 | 12.78° C | 99% | 1008.3 hPa | 0 mm | - | 7 W/m² | - |
| 1777504130 | 12.78° C | 99% | 1008.1 hPa | 0 mm | - | 8 W/m² | - |
| 1777503826 | 12.78° C | 99% | 1008.1 hPa | 0 mm | - | 19 W/m² | - |
| 1777503523 | 12.78° C | 99% | 1008.1 hPa | 3.05 mm | - | 22 W/m² | - |
| 1777503219 | 12.78° C | 99% | 1008.2 hPa | 3.05 mm | - | 33 W/m² | - |
| 1777502916 | 12.78° C | 99% | 1008.3 hPa | 0 mm | - | 13 W/m² | - |
| 1777502613 | 12.78° C | 99% | 1008.2 hPa | 0 mm | - | 25 W/m² | - |
| 1777502310 | 12.78° C | 99% | 1007.8 hPa | 0 mm | - | 24 W/m² | - |
| 1777502007 | 12.78° C | 99% | 1007.7 hPa | 0 mm | - | 18 W/m² | - |
| 1777501704 | 12.78° C | 99% | 1007.7 hPa | 0 mm | - | 36 W/m² | - |
| 1777501401 | 12.78° C | 99% | 1007.5 hPa | 0 mm | - | 26 W/m² | - |
| 1777501099 | 12.78° C | 99% | 1007.7 hPa | 0 mm | - | 32 W/m² | - |
| 1777500797 | 12.78° C | 99% | 1007.6 hPa | 0 mm | - | 23 W/m² | - |
| 1777500494 | 12.78° C | 99% | 1007.1 hPa | 0 mm | - | 29 W/m² | - |
| 1777500189 | 12.78° C | 99% | 1007.2 hPa | 0 mm | - | 57 W/m² | - |
| 1777499887 | 12.78° C | 99% | 1007.2 hPa | 0 mm | - | 80 W/m² | - |
| 1777499583 | 12.78° C | 99% | 1007.2 hPa | 0 mm | - | 48 W/m² | - |
| 1777499280 | 12.78° C | 99% | 1006.8 hPa | 0 mm | - | 53 W/m² | - |
| 1777498978 | 12.78° C | 99% | 1006.7 hPa | 0 mm | - | 76 W/m² | - |
| 1777498674 | 12.78° C | 99% | 1006.5 hPa | 1.78 mm | - | 121 W/m² | - |
| 1777498370 | 12.78° C | 99% | 1006.3 hPa | 6.1 mm | - | 81 W/m² | - |
| 1777498068 | 13.33° C | 99% | 1006.4 hPa | 7.87 mm | - | 45 W/m² | - |
| 1777497764 | 14.44° C | 99% | 1006 hPa | 16.76 mm | - | 32 W/m² | - |
* Rain latest hour (hover to see other rain measurements)
** Current wind speed in m/s (hover to see current wind gust speed)